STARLINK-2139 (48554 NORAD) Tracking and Keplerian Element Data

This shows tracking and keplerian element data for the satellite.

Feedback or suggestion? Click here.




ElementValue
Catalog48554
NameSTARLINK-2139
Epoch Orbit1195
Epoch Day214.45063924
Epoch Year2021
RAAN114.4668
Inclination53.0624
Eccentricity0.0002222
Argument of Perigee93.8894
Mean Anonmoly266.2349
Mean Motion15.06388768
Decay Rate-8.6E-06
L11 48554U 21041B 21214.45063924 -.00000860 00000-0 -38857-4 0 9998
L22 48554 53.0624 114.4668 0002222 93.8894 266.2349 15.06388768 11957

Live tracking and technical data element details for STARLINK-2139 (NORAD 48554). STARLINK-2139 can be tracked NOW for your location showing map with azimuth and elevation plus other details from your city location.

Track the satellite on the map from your city or location and see movement details for azimuth, elevation, latitude, longitude, range, height, and movement on the map or in text.







IsCatalogInMostPopularTable: catalog: 48554, numindb: 22
Update: records affected: 1



GetName: 48554 STARLINK-2139

Hit Count: updated at: Wed, 04 Aug 2021 00:57:30 GMT